TimeEDT,TemperatureF,Dew PointF,Humidity,Sea Level PressureIn,VisibilityMPH,Wind Direction,Wind SpeedMPH,Gust SpeedMPH,PrecipitationIn,Events,Conditions,WindDirDegrees,DateUTC
12:51 AM,61.0,60.1,97,29.83,8.0,Calm,Calm,-,N/A,,Clear,0,2013-09-02 04:51:00
1:51 AM,60.1,59.0,96,29.82,9.0,North,3.5,-,N/A,,Clear,360,2013-09-02 05:51:00
2:51 AM,60.1,59.0,96,29.79,7.0,Calm,Calm,-,N/A,,Partly Cloudy,0,2013-09-02 06:51:00
3:42 AM,60.8,59.0,94,29.78,8.0,Calm,Calm,-,N/A,Thunderstorm,Mostly Cloudy,0,2013-09-02 07:42:00
3:51 AM,63.0,60.1,90,29.79,5.0,WSW,8.1,20.7,0.01,Rain-Thunderstorm,Light Thunderstorms and Rain,240,2013-09-02 07:51:00
3:55 AM,64.4,62.6,94,29.81,1.8,WSW,10.4,20.7,0.11,Rain-Thunderstorm,Heavy Thunderstorms and Rain,240,2013-09-02 07:55:00
4:15 AM,62.6,62.6,100,29.80,3.0,East,5.8,-,0.34,Rain-Thunderstorm,Light Thunderstorms and Rain,100,2013-09-02 08:15:00
4:51 AM,62.1,61.0,96,29.77,9.0,Calm,Calm,-,0.35,,Scattered Clouds,0,2013-09-02 08:51:00
5:33 AM,62.6,62.6,100,29.80,6.0,Calm,Calm,-,N/A,,Overcast,0,2013-09-02 09:33:00
5:51 AM,62.1,61.0,96,29.78,6.0,Calm,Calm,-,N/A,,Overcast,0,2013-09-02 09:51:00
6:51 AM,61.0,61.0,100,29.80,2.0,Calm,Calm,-,N/A,,Overcast,0,2013-09-02 10:51:00
7:16 AM,62.6,60.8,94,29.81,3.0,Calm,Calm,-,N/A,,Mostly Cloudy,0,2013-09-02 11:16:00
7:23 AM,62.6,60.8,94,29.81,2.5,Calm,Calm,-,N/A,,Mostly Cloudy,0,2013-09-02 11:23:00
7:31 AM,60.8,60.8,100,29.81,3.0,Calm,Calm,-,N/A,,Partly Cloudy,0,2013-09-02 11:31:00
7:39 AM,62.6,60.8,94,29.80,2.5,Calm,Calm,-,N/A,,Partly Cloudy,0,2013-09-02 11:39:00
7:47 AM,62.6,62.6,100,29.80,4.0,Calm,Calm,-,N/A,,Clear,0,2013-09-02 11:47:00
7:51 AM,63.0,62.1,97,29.78,4.0,Calm,Calm,-,N/A,,Clear,0,2013-09-02 11:51:00
8:51 AM,64.9,64.0,97,29.78,8.0,South,3.5,-,N/A,,Clear,170,2013-09-02 12:51:00
9:51 AM,68.0,64.0,87,29.78,10.0,South,3.5,-,N/A,,Clear,190,2013-09-02 13:51:00
10:51 AM,70.0,64.9,84,29.77,10.0,WSW,8.1,-,N/A,,Scattered Clouds,250,2013-09-02 14:51:00
11:51 AM,70.0,64.9,84,29.77,10.0,WSW,5.8,-,N/A,,Mostly Cloudy,240,2013-09-02 15:51:00
12:14 PM,69.8,64.4,83,29.79,10.0,SW,8.1,-,N/A,,Overcast,220,2013-09-02 16:14:00
12:46 PM,71.6,64.4,78,29.78,10.0,SW,8.1,-,N/A,,Overcast,220,2013-09-02 16:46:00
1:51 PM,72.0,64.9,78,29.75,10.0,SSW,8.1,-,N/A,,Overcast,210,2013-09-02 17:51:00
2:14 PM,73.4,64.4,73,29.76,10.0,South,6.9,-,N/A,,Overcast,190,2013-09-02 18:14:00
2:51 PM,72.0,64.9,78,29.74,10.0,SW,6.9,-,N/A,,Overcast,220,2013-09-02 18:51:00
3:51 PM,73.9,64.9,73,29.70,10.0,SSW,11.5,-,N/A,,Mostly Cloudy,200,2013-09-02 19:51:00
4:51 PM,73.9,66.0,76,29.68,10.0,SSW,4.6,-,0.03,,Scattered Clouds,210,2013-09-02 20:51:00
5:51 PM,71.1,66.9,87,29.68,10.0,Calm,Calm,-,N/A,,Mostly Cloudy,0,2013-09-02 21:51:00
6:23 PM,68.0,66.2,94,29.71,7.0,Calm,Calm,-,N/A,Thunderstorm,Overcast,0,2013-09-02 22:23:00
6:34 PM,66.2,62.6,88,29.76,1.8,WNW,15.0,24.2,0.17,Rain-Thunderstorm,Heavy Thunderstorms and Rain,290,2013-09-02 22:34:00
6:48 PM,62.6,60.8,94,29.76,0.8,Calm,Calm,-,0.51,Rain-Thunderstorm,Heavy Thunderstorms and Rain,0,2013-09-02 22:48:00
6:51 PM,62.1,61.0,96,29.75,0.5,Calm,Calm,-,0.60,Fog-Rain-Thunderstorm,Heavy Thunderstorms and Rain,0,2013-09-02 22:51:00
7:00 PM,62.6,60.8,94,29.76,1.2,South,9.2,-,0.07,Rain-Thunderstorm,Heavy Thunderstorms and Rain,190,2013-09-02 23:00:00
7:04 PM,60.8,60.8,100,29.75,3.0,SSW,3.5,-,0.09,Rain-Thunderstorm,Heavy Thunderstorms and Rain,210,2013-09-02 23:04:00
7:15 PM,60.8,60.8,100,29.75,1.8,South,8.1,-,0.14,Rain-Thunderstorm,Heavy Rain,170,2013-09-02 23:15:00
7:26 PM,60.8,60.8,100,29.73,2.5,SE,5.8,-,0.18,Rain-Thunderstorm,Rain,130,2013-09-02 23:26:00
7:31 PM,60.8,60.8,100,29.74,4.0,ESE,3.5,-,0.19,Rain,Light Rain,120,2013-09-02 23:31:00
7:51 PM,60.1,59.0,96,29.73,8.0,South,3.5,-,0.19,Rain,Light Rain,180,2013-09-02 23:51:00
8:51 PM,60.1,60.1,100,29.70,9.0,SSW,5.8,-,0.01,,Scattered Clouds,210,2013-09-03 00:51:00
9:51 PM,60.1,59.0,96,29.71,10.0,South,4.6,-,N/A,,Clear,190,2013-09-03 01:51:00
10:51 PM,59.0,57.9,96,29.72,10.0,SW,4.6,-,N/A,,Scattered Clouds,230,2013-09-03 02:51:00
11:51 PM,57.0,57.0,100,29.72,3.0,SSW,3.5,-,N/A,,Partly Cloudy,200,2013-09-03 03:51:00